This is the latest recevied weather packets stored in our database for station/object HP1PCR-13. If no packets are shown the sender has not sent any weather packets the latest 10 day(s).
| Time | Temp. | Humidity | Pressure | Rain* | Wind** | Luminosity | Snow |
|---|---|---|---|---|---|---|---|
| 1777677678 | 34.44° C | 45% | 1000.7 hPa | - | - | - | - |
| 1777677073 | 34.44° C | 45% | 1000.6 hPa | - | - | - | - |
| 1777676469 | 34.44° C | 45% | 1000.6 hPa | - | - | - | - |
| 1777675865 | 34.44° C | 45% | 1000.1 hPa | - | - | - | - |
| 1777675261 | 34.44° C | 46% | 1000.3 hPa | - | - | - | - |
| 1777674657 | 34.44° C | 46% | 1000.1 hPa | - | - | - | - |
| 1777674053 | 34.44° C | 46% | 999.9 hPa | - | - | - | - |
| 1777673448 | 34.44° C | 46% | 1000.3 hPa | - | - | - | - |
| 1777672844 | 34.44° C | 47% | 999.9 hPa | - | - | - | - |
| 1777672240 | 34.44° C | 47% | 999.8 hPa | - | - | - | - |
| 1777671635 | 34.44° C | 50% | 999.6 hPa | - | - | - | - |
| 1777671032 | 33.89° C | 52% | 999.4 hPa | - | - | - | - |
| 1777670427 | 33.89° C | 52% | 999.3 hPa | - | - | - | - |
| 1777669823 | 33.89° C | 52% | 999.2 hPa | - | - | - | - |
| 1777669219 | 33.89° C | 48% | 999.1 hPa | - | - | - | - |
| 1777667407 | 34.44° C | 45% | 999 hPa | - | - | - | - |
| 1777665595 | 34.44° C | 45% | 999.2 hPa | - | - | - | - |
| 1777664991 | 34.44° C | 46% | 999.1 hPa | - | - | - | - |
| 1777664386 | 34.44° C | 46% | 999.3 hPa | - | - | - | - |
| 1777663784 | 34.44° C | 46% | 999.4 hPa | - | - | - | - |
| 1777663178 | 34.44° C | 46% | 1000 hPa | - | - | - | - |
| 1777662575 | 34.44° C | 46% | 1000.4 hPa | - | - | - | - |
| 1777660763 | 34.44° C | 47% | 1000.2 hPa | - | - | - | - |
| 1777658950 | 33.89° C | 45% | 1001 hPa | - | - | - | - |
| 1777658345 | 33.89° C | 45% | 1001 hPa | - | - | - | - |
* Rain since midnight (hover to see other rain measurements)
** Current wind speed in m/s (hover to see current wind gust speed)